Regional Weather Roundup
Issued by NWS

Home | Current Version | Previous Version | Text Only | Print | Product List | Glossary Off
Versions: 1 2 3 4 5 6 7 8 9 10 11 12 13 14 15 16 17 18 19 20 21 22 23 24 25 26 27 28 29 30 31 32 33 34 35 36 37 38 39 40 41 42 43 44 45 46 47 48 49 50

000
ASUS43 KFSD 030302
RWRSD

WEATHER ROUNDUP FOR SOUTH DAKOTA
NATIONAL WEATHER SERVICE SIOUX FALLS SD
1000 PM CDT THU JUL 02 2015

NOTE: "FAIR" INDICATES FEW OR NO CLOUDS BELOW 12,000 FEET WITH NO
SIGNIFICANT WEATHER AND/OR OBSTRUCTIONS TO VISIBILITY.


SDZ001>005-009-010-012>017-030400-
NORTHWEST AND NORTH CENTRAL SOUTH DAKOTA

CITY           SKY/WX    TMP DP  RH WIND       PRES   REMARKS
BUFFALO          N/A     71  58  63 NE6       30.00S
FAITH            N/A     67  59  75 NE6       30.03R
MOBRIDGE       PTCLDY    70  68  93 N6        29.96R FOG
$$

SDZ012>016-024>037-041>051-057-063-072>074-030400-
SOUTHWEST AND SOUTH CENTRAL SOUTH DAKOTA

CITY           SKY/WX    TMP DP  RH WIND       PRES   REMARKS
RAPID CTY ARPT CLEAR     67  59  75 NE9       30.07R
PIERRE         CLEAR     67  64  90 SE6       29.97R
CUSTER         CLEAR     64  50  60 CALM      30.21R
ELLSWORTH AFB  CLEAR     71  58  63 NE5       30.07R
PHILIP         CLEAR     70  63  78 N8        30.01R
PINE RIDGE     PTCLDY    68  59  73 N5        30.08R
WINNER         FAIR      70  62  76 SE5       29.99R
$$

SDZ004>011-016>023-039-040-030400-
NORTHEAST SOUTH DAKOTA

CITY           SKY/WX    TMP DP  RH WIND       PRES   REMARKS
ABERDEEN       PTCLDY    65  61  87 S6        29.96F
WATERTOWN      CLEAR     62  52  69 SW5       29.99R
BROOKINGS      CLEAR     63  54  72 S5        30.01R
SISSETON         N/A     63  57  81 S5        29.96R
$$

SDZ017-020-022-023-036>040-048>070-030400-
SOUTHEAST SOUTH DAKOTA

CITY           SKY/WX    TMP DP  RH WIND       PRES   REMARKS
SIOUX FALLS    PTCLDY    64  59  83 SW3       29.99R
HURON          LGT RAIN  65  59  81 S6        29.98R
CHAMBERLAIN    PTCLDY    65  64  96 CALM      29.99R
MITCHELL       CLEAR     64  60  87 S5        30.00R
YANKTON        CLOUDY    64  59  82 SE3       29.98S
$$

ABBREVIATIONS USED IN REMARKS
   TC - TEMPERATURE IN CELSIUS
  WCI - WIND CHILL INDEX
   HX - HEAT INDEX
  VSB - VISIBILITY




USA.gov is the U.S. government's official web portal to all federal, state and local government web resources and services.